| time (UTC) | temp C | wind direction | speed KPH | gust KPH | rain 1hr cm | rain 24hr cm | rain mn cm | humidity % | barometer mb |
| 20260508010035 | -17 | 109 | 3.2 | 14.5 | 0.00 | 0.00 | 0.00 | 1018.8 | |
| 20260508004529 | -17 | 94 | 8.0 | 16.1 | 0.00 | 0.00 | 0.00 | 1018.8 | |
| 20260508003026 | -17 | 360 | 4.8 | 12.9 | 0.00 | 0.00 | 0.00 | 1018.8 | |
| 20260508001537 | -17 | 59 | 1.6 | 12.9 | 0.00 | 0.00 | 0.00 | 1018.9 | |
| 20260508000016 | -17 | 59 | 3.2 | 11.3 | 0.00 | 0.00 | 0.00 | 1019.0 | |
| 20260507234515 | -17 | 360 | 0.0 | 4.8 | 0.00 | 0.00 | 0.00 | 1019.0 | |
| 20260507233013 | -17 | 360 | 0.0 | 3.2 | 0.00 | 0.00 | 0.00 | 1019.0 | |
| 20260507231502 | -17 | 360 | 0.0 | 4.8 | 0.00 | 0.00 | 0.00 | 1019.0 | |
| 20260507230058 | -17 | 53 | 0.0 | 1.6 | 0.00 | 0.00 | 0.00 | 1018.9 | |
| 20260507224600 | -17 | 55 | 0.0 | 1.6 | 0.00 | 0.00 | 0.00 | 1018.9 | |
| 20260507223050 | -17 | 5 | 0.0 | 0.0 | 0.00 | 0.00 | 0.00 | 1018.9 | |
| 20260507221545 | -17 | 274 | 0.0 | 0.0 | 0.00 | 0.00 | 0.00 | 1018.9 | |
| 20260507220044 | -17 | 274 | 0.0 | 0.0 | 0.00 | 0.00 | 0.00 | 1018.9 | |
| 20260507214538 | -17 | 274 | 0.0 | 0.0 | 0.00 | 0.00 | 0.00 | 1018.9 | |
| 20260507213034 | -17 | 272 | 0.0 | 0.0 | 0.00 | 0.00 | 0.00 | 1018.8 | |
| 20260507211529 | -17 | 272 | 0.0 | 0.0 | 0.00 | 0.00 | 0.00 | 1018.8 | |
| 20260507210023 | -17 | 272 | 0.0 | 0.0 | 0.00 | 0.00 | 0.00 | 1018.8 | |
| 20260507204519 | -17 | 272 | 0.0 | 0.0 | 0.00 | 0.00 | 0.00 | 1018.8 | |
| 20260507203015 | -17 | 272 | 0.0 | 0.0 | 0.00 | 0.00 | 0.00 | 1018.8 | |
| 20260507201510 | -17 | 272 | 0.0 | 0.0 | 0.00 | 0.00 | 0.00 | 1018.8 | |
| 20260507200006 | -17 | 272 | 0.0 | 0.0 | 0.00 | 0.00 | 0.00 | 1018.6 | |
| 20260507194501 | -17 | 272 | 0.0 | 0.0 | 0.00 | 0.00 | 0.00 | 1018.5 | |
| 20260507193058 | -17 | 268 | 0.0 | 3.2 | 0.00 | 0.00 | 0.00 | 1018.4 | |
| 20260507191557 | -17 | 263 | 0.0 | 4.8 | 0.00 | 0.00 | 0.00 | 1018.2 | |
| 20260507190053 | -17 | 229 | 1.6 | 8.0 | 0.00 | 0.00 | 0.00 | 1018.2 | |
| 20260507184548 | -17 | 246 | 1.6 | 11.3 | 0.00 | 0.00 | 0.00 | 1017.9 | |
| 20260507183042 | -17 | 242 | 3.2 | 9.7 | 0.00 | 0.00 | 0.00 | 1017.9 | |
| 20260507181535 | -17 | 229 | 3.2 | 9.7 | 0.00 | 0.00 | 0.00 | 1017.9 | |
| 20260507180030 | -17 | 246 | 1.6 | 9.7 | 0.00 | 0.00 | 0.00 | 1017.8 | |
| 20260507174537 | -17 | 236 | 1.6 | 12.9 | 0.00 | 0.00 | 0.00 | 1017.8 | |
| 20260507173027 | -17 | 248 | 6.4 | 14.5 | 0.00 | 0.00 | 0.00 | 1017.6 | |
| 20260507171518 | -17 | 260 | 4.8 | 14.5 | 0.00 | 0.00 | 0.00 | 1017.7 | |
| 20260507170015 | -17 | 235 | 4.8 | 12.9 | 0.00 | 0.00 | 0.00 | 1017.7 | |
| 20260507164509 | -17 | 243 | 4.8 | 14.5 | 0.00 | 0.00 | 0.00 | 1017.6 | |
| 20260507163004 | -17 | 266 | 4.8 | 11.3 | 0.00 | 0.00 | 0.00 | 1017.5 | |
| 20260507161600 | -17 | 234 | 8.0 | 19.3 | 0.00 | 0.00 | 0.00 | 1017.6 | |
| 20260507160056 | -17 | 229 | 4.8 | 12.9 | 0.00 | 0.00 | 0.00 | 1017.7 | |
| 20260507154552 | -17 | 259 | 1.6 | 16.1 | 0.00 | 0.00 | 0.00 | 1017.7 | |
| 20260507153051 | -17 | 248 | 1.6 | 12.9 | 0.00 | 0.00 | 0.00 | 1017.8 | |
| 20260507151543 | -17 | 254 | 1.6 | 17.7 | 0.00 | 0.00 | 0.00 | 1017.7 | |
| 20260507150041 | -17 | 256 | 1.6 | 16.1 | 0.00 | 0.00 | 0.00 | 1017.8 | |
| 20260507144534 | -17 | 248 | 3.2 | 17.7 | 0.00 | 0.00 | 0.00 | 1017.7 | |
| 20260507143033 | -17 | 273 | 1.6 | 14.5 | 0.00 | 0.00 | 0.00 | 1017.8 | |
| 20260507141524 | -17 | 251 | 3.2 | 16.1 | 0.00 | 0.00 | 0.00 | 1017.9 | |
| 20260507140020 | -17 | 211 | 6.4 | 14.5 | 0.00 | 0.00 | 0.00 | 1017.8 | |
| 20260507134516 | -17 | 257 | 3.2 | 11.3 | 0.00 | 0.00 | 0.00 | 1017.9 | |
| 20260507133011 | -17 | 216 | 6.4 | 17.7 | 0.00 | 0.00 | 0.00 | 1017.9 | |
| 20260507131510 | -17 | 240 | 8.0 | 16.1 | 0.00 | 0.00 | 0.00 | 1017.8 | |
| 20260507130002 | -17 | 228 | 0.0 | 16.1 | 0.00 | 0.00 | 0.00 | 1017.7 | |
| 20260507124558 | -17 | 255 | 1.6 | 14.5 | 0.00 | 0.00 | 0.00 | 1017.7 | |
| 20260507123054 | -17 | 225 | 8.0 | 16.1 | 0.00 | 0.00 | 0.00 | 1017.7 | |
| 20260507121559 | -17 | 267 | 3.2 | 19.3 | 0.00 | 0.00 | 0.00 | 1017.7 | |
| 20260507120046 | -17 | 227 | 4.8 | 16.1 | 0.00 | 0.00 | 0.00 | 1017.6 | |
| 20260507114548 | -17 | 278 | 1.6 | 19.3 | 0.00 | 0.00 | 0.00 | 1017.6 | |
| 20260507113037 | -17 | 253 | 0.0 | 8.0 | 0.00 | 0.00 | 0.00 | 1017.7 | |
| 20260507111531 | -17 | 246 | 1.6 | 12.9 | 0.00 | 0.00 | 0.00 | 1017.6 | |
| 20260507110027 | -17 | 239 | 3.2 | 11.3 | 0.00 | 0.00 | 0.00 | 1017.7 | |
| 20260507104523 | -17 | 360 | 0.0 | 8.0 | 0.00 | 0.00 | 0.00 | 1017.7 | |
| 20260507103018 | -17 | 250 | 1.6 | 12.9 | 0.00 | 0.00 | 0.00 | 1017.7 | |
| 20260507101514 | -17 | 263 | 0.0 | 8.0 | 0.00 | 0.00 | 0.00 | 1017.6 | |
| 20260507100010 | -17 | 360 | 1.6 | 11.3 | 0.00 | 0.00 | 0.00 | 1017.6 | |
| 20260507094504 | -17 | 264 | 0.0 | 8.0 | 0.00 | 0.00 | 0.00 | 1017.6 | |
| 20260507093001 | -17 | 327 | 0.0 | 4.8 | 0.00 | 0.00 | 0.00 | 1017.6 | |
| 20260507091559 | -17 | 360 | 1.6 | 6.4 | 0.00 | 0.00 | 0.00 | 1017.6 | |
| 20260507090056 | -17 | 231 | 1.6 | 9.7 | 0.00 | 0.00 | 0.00 | 1017.5 | |
| 20260507084547 | -17 | 250 | 0.0 | 9.7 | 0.00 | 0.00 | 0.00 | 1017.6 | |
| 20260507083044 | -17 | 292 | 0.0 | 8.0 | 0.00 | 0.00 | 0.00 | 1017.4 | |
| 20260507081547 | -17 | 249 | 0.0 | 8.0 | 0.00 | 0.00 | 0.00 | 1017.5 | |
| 20260507080036 | -17 | 238 | 3.2 | 11.3 | 0.00 | 0.00 | 0.00 | 1017.3 | |
| 20260507074549 | -17 | 173 | 0.0 | 6.4 | 0.00 | 0.00 | 0.00 | 1017.3 | |
| 20260507073027 | -17 | 49 | 0.0 | 9.7 | 0.00 | 0.00 | 0.00 | 1017.3 | |
| 20260507071521 | -17 | 150 | 0.0 | 9.7 | 0.00 | 0.00 | 0.00 | 1017.4 | |
| 20260507070021 | -17 | 172 | 0.0 | 6.4 | 0.00 | 0.00 | 0.00 | 1017.3 | |
| 20260507064512 | -17 | 360 | 1.6 | 6.4 | 0.00 | 0.00 | 0.00 | 1017.3 | |
| 20260507063016 | -17 | 360 | 0.0 | 0.0 | 0.00 | 0.00 | 0.00 | 1017.3 | |
| 20260507061504 | -17 | 360 | 0.0 | 0.0 | 0.00 | 0.00 | 0.00 | 1017.1 | |
| 20260507054637 | -17 | 186 | 0.0 | 0.0 | 0.00 | 0.00 | 0.00 | 1017.2 | |
| 20260507053053 | -17 | 186 | 0.0 | 0.0 | 0.00 | 0.00 | 0.00 | 1017.1 | |
| 20260507051546 | -17 | 186 | 0.0 | 0.0 | 0.00 | 0.00 | 0.00 | 1017.0 | |
| 20260507050042 | -17 | 186 | 0.0 | 0.0 | 0.00 | 0.00 | 0.00 | 1016.9 | |
| 20260507044544 | -17 | 186 | 0.0 | 0.0 | 0.00 | 0.00 | 0.00 | 1016.8 | |
| 20260507043033 | -17 | 186 | 0.0 | 0.0 | 0.00 | 0.00 | 0.00 | 1016.8 | |
| 20260507041528 | -17 | 186 | 0.0 | 0.0 | 0.00 | 0.00 | 0.00 | 1016.7 | |
| 20260507040023 | -17 | 186 | 0.0 | 0.0 | 0.00 | 0.00 | 0.00 | 1016.7 | |
| 20260507034519 | -17 | 186 | 0.0 | 0.0 | 0.00 | 0.00 | 0.00 | 1016.5 | |
| 20260507033020 | -17 | 186 | 0.0 | 0.0 | 0.00 | 0.00 | 0.00 | 1016.5 | |
| 20260507031511 | -17 | 186 | 0.0 | 0.0 | 0.00 | 0.00 | 0.00 | 1016.5 | |
| 20260507030006 | -17 | 186 | 0.0 | 0.0 | 0.00 | 0.00 | 0.00 | 1016.5 | |
| 20260507024501 | -17 | 186 | 0.0 | 0.0 | 0.00 | 0.00 | 0.00 | 1016.4 | |
| 20260507023105 | -17 | 186 | 0.0 | 0.0 | 0.00 | 0.00 | 0.00 | 1016.3 | |
| 20260507021552 | -17 | 186 | 0.0 | 0.0 | 0.00 | 0.00 | 0.00 | 1016.2 | |
| 20260507020049 | -17 | 186 | 0.0 | 0.0 | 0.00 | 0.00 | 0.00 | 1016.3 | |
| 20260507014551 | -17 | 186 | 0.0 | 0.0 | 0.00 | 0.00 | 0.00 | 1016.2 | |
| 20260507013039 | -17 | 186 | 0.0 | 0.0 | 0.00 | 0.00 | 0.00 | 1016.1 | |
| 20260507011535 | -17 | 186 | 0.0 | 0.0 | 0.00 | 0.00 | 0.00 | 1016.1 |